WetterOnline ( http://www.wetteronline.de )

Wetter aktuell Freiburg

Aktuelles Wetter: Freiburg/Flugplatz (236m)

6-stündlich | Neueste Meldungen
Ortszeit Temperatur Wetter
Sa, 17.02. 19:00 0.1° C Schneefall
Sa, 17.02. 13:00 1.6° C leichter Regen
Sa, 17.02. 7:00 1.7° C leichter Regen
Sa, 17.02. 1:00 3.2° C leicht bewölkt
Fr, 16.02. 19:00 7.2° C bedeckt
Fr, 16.02. 13:00 8.7° C bewölkt
Fr, 16.02. 7:00 5.1° C Sprühregen
Fr, 16.02. 1:00 7.1° C Sprühregen
Ortszeit Temperatur Wetter
Sa, 17.02. 22:00 -0.0° C leichter Schneefall
Sa, 17.02. 21:50 -0.0° C leichter Schneefall
Sa, 17.02. 21:40 -0.0° C leichter Schneefall
Sa, 17.02. 21:30 0.1° C leichter Schneefall
Sa, 17.02. 21:20 0.1° C leichter Schneefall
Sa, 17.02. 21:10 0.1° C leichter Schneefall
Sa, 17.02. 21:00 0.1° C leichter Schneefall
Sa, 17.02. 20:30 0.1° C Schneefall
Sa, 17.02. 20:00 0.1° C leichter Schneefall
Sa, 17.02. 19:30 0.1° C leichter Schneefall
Sa, 17.02. 19:00 0.1° C Schneefall
Ortszeit Relative Feuchte Sichtweite
Sa, 17.02. 19:00 99% 1.5 km
Sa, 17.02. 13:00 96% 5.0 km
Sa, 17.02. 7:00 97% 2.5 km
Sa, 17.02. 1:00 91% 30 km
Fr, 16.02. 19:00 76% 55 km
Fr, 16.02. 13:00 69% 70 km
Fr, 16.02. 7:00 97% 3.5 km
Fr, 16.02. 1:00 98% 3.8 km
Ortszeit Relative Feuchte Sichtweite
Sa, 17.02. 22:00 98% 3.4 km
Sa, 17.02. 21:50 98% -
Sa, 17.02. 21:40 97% -
Sa, 17.02. 21:30 98% 2.7 km
Sa, 17.02. 21:20 98% -
Sa, 17.02. 21:10 97% -
Sa, 17.02. 21:00 98% 2.0 km
Sa, 17.02. 20:30 99% 1.0 km
Sa, 17.02. 20:00 98% 1.9 km
Sa, 17.02. 19:30 97% 1.9 km
Sa, 17.02. 19:00 99% 1.5 km
Ortszeit Niederschlagsmenge Niederschlagsart
Sa, 17.02. 19:00 16 l/m2 in 12 Std. Schnee, Regen
Sa, 17.02. 13:00 12 l/m2 in 6 Std. Regen
Sa, 17.02. 7:00 4 l/m2 in 12 Std. Regen
Sa, 17.02. 1:00 0.0 l/m2 in 6 Std. -
Fr, 16.02. 19:00 0.2 l/m2 in 12 Std. -
Fr, 16.02. 13:00 0.2 l/m2 in 6 Std. Regen
Fr, 16.02. 7:00 7 l/m2 in 12 Std. Regen
Fr, 16.02. 1:00 4 l/m2 in 6 Std. Regen
Ortszeit Niederschlagsmenge Niederschlagsart
Sa, 17.02. 22:00 0.3 l/m2 in 1 Std. Schnee
Sa, 17.02. 21:50 keine Meldung -
Sa, 17.02. 21:40 keine Meldung -
Sa, 17.02. 21:30 0.1 l/m2 in 1 Std. -
Sa, 17.02. 21:20 keine Meldung -
Sa, 17.02. 21:10 keine Meldung -
Sa, 17.02. 21:00 0.7 l/m2 in 1 Std. Schnee
Sa, 17.02. 20:30 0.3 l/m2 in 1 Std. -
Sa, 17.02. 20:00 0.4 l/m2 in 1 Std. Schnee
Sa, 17.02. 19:30 0.2 l/m2 in 1 Std. -
Sa, 17.02. 19:00 1.1 l/m2 in 1 Std. Schnee, Regen
Ortszeit Stärke Spitze Richtung
km/h Bft. km/h Grad Sektor
Sa, 17.02. 19:00 0 0 18 - -
Sa, 17.02. 13:00 13 3 20 310° NW
Sa, 17.02. 7:00 7 2 14 20° N
Sa, 17.02. 1:00 7 2 14 330° NW
Fr, 16.02. 19:00 4 1 18 10° N
Fr, 16.02. 13:00 7 2 18 360° N
Fr, 16.02. 7:00 2 1 30 140° SO
Fr, 16.02. 1:00 9 2 44 360° N
Ortszeit Stärke Spitze Richtung
km/h Bft. km/h Grad Sektor
Sa, 17.02. 22:00 4 1 7 330° NW
Sa, 17.02. 21:50 4 1 - 330° NW
Sa, 17.02. 21:40 4 1 - 330° NW
Sa, 17.02. 21:30 4 1 4 320° NW
Sa, 17.02. 21:20 4 1 - 320° NW
Sa, 17.02. 21:10 4 1 - 310° NW
Sa, 17.02. 21:00 4 1 7 320° NW
Sa, 17.02. 20:30 4 1 7 320° NW
Sa, 17.02. 20:00 6 1 6 320° NW
Sa, 17.02. 19:30 4 1 4 330° NW
Sa, 17.02. 19:00 0 0 4 - -
Ortszeit Untergrenze Bedeckung Gattung
total tief tief mittel hoch
Sa, 17.02. 19:00 30 m 7/8 7/8 - - -
Sa, 17.02. 13:00 60 m 8/8 8/8 - - -
Sa, 17.02. 7:00 30 m 8/8 8/8 - - -
Sa, 17.02. 1:00 9000 m 6/8 0/8 - - -
Fr, 16.02. 19:00 960 m 8/8 8/8 - - -
Fr, 16.02. 13:00 840 m 8/8 7/8 - - -
Fr, 16.02. 7:00 660 m 7/8 7/8 - - -
Fr, 16.02. 1:00 30 m 7/8 8/8 - - -
Ortszeit Bedeckungsgrad in Achtel und Wolkenuntergrenze
Sa, 17.02. 22:00 8(30m)
Sa, 17.02. 21:50 8(30m)
Sa, 17.02. 21:40 8(30m)
Sa, 17.02. 21:30 8(30m)
Sa, 17.02. 21:20 8(30m)
Sa, 17.02. 21:10 8(30m)
Sa, 17.02. 21:00 8(30m)
Sa, 17.02. 20:30 8(30m)
Sa, 17.02. 20:00 8(30m)
Sa, 17.02. 19:30 8(30m)
Sa, 17.02. 19:00 7(30m)
Ortszeit Luftdruck NN (hPa) Tendenz (hPa in 3 Std.)
Sa, 17.02. 19:00 1023 + 3,2
Sa, 17.02. 13:00 1018 + 0,9
Sa, 17.02. 7:00 1018 - 3,4
Sa, 17.02. 1:00 1024 - 1,2
Fr, 16.02. 19:00 1026 0,0
Fr, 16.02. 13:00 1027 + 0,6
Fr, 16.02. 7:00 1025 + 1,9
Fr, 16.02. 1:00 1021 + 2,5
Ortszeit Luftdruck NN (hPa) Tendenz (hPa in 3 Std.)
Sa, 17.02. 22:00 1025 + 1,9
Sa, 17.02. 21:50 1025 keine Meldung
Sa, 17.02. 21:40 1025 keine Meldung
Sa, 17.02. 21:30 1024 + 1,9
Sa, 17.02. 21:20 1024 keine Meldung
Sa, 17.02. 21:10 1024 keine Meldung
Sa, 17.02. 21:00 1024 + 2,2
Sa, 17.02. 20:30 1024 + 2,5
Sa, 17.02. 20:00 1024 + 3,0
Sa, 17.02. 19:30 1023 + 3,0
Sa, 17.02. 19:00 1023 + 3,2
Ortszeit Schneehöhe (cm)
Sa, 17.02. 19:00 0
Sa, 17.02. 13:00 0
Sa, 17.02. 7:00 0
Sa, 17.02. 1:00 0
Fr, 16.02. 19:00 0
Fr, 16.02. 13:00 0
Fr, 16.02. 7:00 0
Fr, 16.02. 1:00 0
Ortszeit Schneehöhe (cm)
Sa, 17.02. 22:00 1
Sa, 17.02. 21:50 1
Sa, 17.02. 21:40 1
Sa, 17.02. 21:30 -
Sa, 17.02. 21:20 -
Sa, 17.02. 21:10 -
Sa, 17.02. 21:00 -
Sa, 17.02. 20:30 -
Sa, 17.02. 20:00 0
Sa, 17.02. 19:30 0
Sa, 17.02. 19:00 0
Link zu dieser Seite / Seite empfehlen

Das Wetter in ...